STARLINK-31907, 59797

Orbit data source: Space-Track

STARLINK-31907, 59797 is a payload satellite owned by SpaceX/Seattle (US) in LEO that was launched on Sat, 18 May 2024 UTC via an FALCON 9 launch vehicle from the Air Force Eastern Test Range (AFETR). Payload-class satellites include a variety of spacecraft equipped with specific instruments for various scientific and technological missions. These include communications satellites like Starlink; space stations such as the ISS; scientific satellites like the Hubble; Earth observation satellites from companies like Planet Labs, Umbra, and HawkEye 360; GPS; miniature CubeSats for education and research; and military/defense satellites.

Loading next visibility...
Identifier
59797, 2024-093R
Orbit
LEO
Country
Flag of USUS
Related business
Manufacturer
SpaceX/Seattle
Mission
Operational Commercial Communications
Bus & Motor
STARLINK V2M, Unknown motor
Mass
730 kg wet, ~700 kg dry
Launch date (UTC)
2024-05-18 (1 year ago)
Launch vehicle
FALCON 9
Launch site
Air Force Eastern Test Range (AFETR)
Object type
Payload
Rocket body
Debris
Shape & HBR
Box + 2 Pan, 17.7 m
Radar Cross Section
33.884 m², Large (>1 m²)

Expand to show TLE details & history
Last TLE update: 12 hours ago

TLE from 12 hours ago
0 STARLINK-31907
1 59797U 24093R   25292.05397046  .00000087  00000-0  12667-4 0  9990
2 59797  43.0057 288.8196 0000827 265.9330  94.1427 15.27607421 81039
Epoch: 2025-10-19T01:17Z
TLE epoch observation values (Epoch: 2025-10-19T01:17:43.047Z)
Latitude
-0.00004°
Longitude
-118.38596°
Altitude
482.784 km
Speed
7.626 km/s
True Right ascension
19h 15m 16s
True Declination
0° 00' 00"
Sunlit
Object was in daylight at epoch
Visualization orbit readout
Latitude
Unknown
Longitude
Unknown
Altitude
Unknown
Speed
Unknown
Apparent Right ascension
Unknown
Apparent Declination
Unknown
Sunlit
N/A
Visualization observer readout
Local Sidereal Time
08:24:14
Azimuth
Unknown
Elevation
Unknown
Doppler factor
Unknown
Orbital elements
Apogee altitude
485.479 km
Perigee altitude
484.344 km
Semi-major axis
6,863.048 km
Eccentricity
0.00008
Inclination
43.0057°
RAAN
288.8196°
Arg. of periapsis
265.933°
True anomaly
94.15215°
Mean anomaly
94.1427°
Eccentric anomaly
94.14743°
Mean motion
3.8174 °/min
Orbital period
94.31 mins
BSTAR
0.000012667
Loading maneuver chart data...
Computing Atmospheric mass density...
Loading historical data...
Loading historical data...
Loading historical data...
Loading historical data...
Loading historical data...
Loading historical data...
Loading historical data...

Documentation

Showing up to 5 results
|